Location: *
(32.8667°N, 13.1833°E)
Time: 09:01:55
(UTC+00:00)

Cosmos 2219 Rocket - Pass Details

Date: 18 July 2019
Orbit: 829 x 845 km, 71.0° (Epoch: 21 August)

Event Time Altitude Azimuth Distance (km) Brightness Sun altitude
Exits shadow 21:33:23 62° 312° (NW) 945 2.5 -31.1°
Drops below altitude 10° 21:38:39 10° 14° (NNE) 2,467 5.2 -31.6°
Sets 21:41:08 0° 17° (NNE) 3,404 6.0 -31.8°
